Location: Montjean
(48.0167°N, 0.9667°W)
Time: 03:56:18
(UTC+01:00)

ISS - Visible Passes

Search period start: 24 March 2019 00:00
Search period end: 03 April 2019 01:00
Orbit: 408 x 411 km, 51.6° (Epoch: 24 March)

Date Brightness Start Highest point End Pass type
(mag) Time Alt. Az. Time Alt. Az. Time Alt. Az.
24 Mar -3.8 21:05:56 10° WSW 21:09:15 83° NNW 21:09:56 52° ENE visible
25 Mar -3.8 20:15:19 10° SW 20:18:36 68° SSE 20:21:38 12° ENE visible
25 Mar -2.2 21:52:07 10° W 21:54:25 35° NW 21:54:25 35° NW visible
26 Mar -3.2 21:01:19 10° W 21:04:34 54° NNW 21:05:59 29° NE visible
26 Mar -0.5 22:38:18 10° WNW 22:38:45 13° WNW 22:38:45 13° WNW visible
27 Mar -3.5 20:10:32 10° WSW 20:13:50 69° NNW 20:17:08 10° ENE visible
27 Mar -2.5 21:47:33 10° WNW 21:50:13 39° NNW 21:50:13 39° NNW visible
28 Mar -2.9 20:56:44 10° WNW 20:59:55 43° N 21:01:37 23° NE visible
28 Mar -0.8 22:33:33 10° WNW 22:34:22 16° WNW 22:34:22 16° WNW visible
29 Mar -3.0 20:05:53 10° W 20:09:07 48° N 20:12:21 10° ENE visible
29 Mar -2.9 21:42:49 10° WNW 21:45:43 45° NNW 21:45:43 45° NNW visible
30 Mar -2.9 20:52:03 10° WNW 20:55:14 43° N 20:57:01 22° ENE visible
30 Mar -1.1 22:28:43 10° WNW 22:29:46 19° WNW 22:29:46 19° WNW visible
31 Mar -2.8 21:01:14 10° WNW 21:04:24 42° N 21:07:34 10° ENE visible
31 Mar -3.5 22:38:00 10° WNW 22:41:03 64° NNW 22:41:03 64° NNW visible
01 Apr -3.3 21:47:14 10° WNW 21:50:29 52° NNE 21:52:20 22° E visible
01 Apr -1.3 23:23:54 10° WNW 23:25:05 20° W 23:25:05 20° W visible
02 Apr -3.8 22:33:05 10° WNW 22:36:21 71° SSW 22:36:21 71° SSW visible
